Location: Unspecified
(0.0000°N, 0.0000°E)
Time: 00:48:16
(UTC+00:00)

Courier 1B Rocket - Visible Passes

Search period start: 25 April 2018 00:00
Search period end: 05 May 2018 00:00
Orbit: 920 x 1202 km, 28.2° (Epoch: 24 April)

Date Brightness Start Highest point End Pass type
(mag) Time Alt. Az. Time Alt. Az. Time Alt. Az.
25 Apr 6.5 03:18:12 34° SE 03:18:12 34° SE 03:24:09 10° E visible
25 Apr 5.5 05:04:35 16° WSW 05:11:08 77° NNW 05:18:56 10° NE visible
25 Apr 6.6 18:29:13 10° W 18:34:08 24° SSW 18:39:10 10° SSE visible
26 Apr 7.8 02:21:11 12° ESE 02:21:11 12° ESE 02:21:44 10° ESE visible
26 Apr 5.4 04:07:34 50° SW 04:09:47 75° SSE 04:17:38 10° ENE visible
26 Apr 7.2 19:26:16 10° SSW 19:27:09 10° SSW 19:28:03 10° SSW visible
27 Apr 6.3 03:10:32 41° ESE 03:10:32 41° ESE 03:16:00 10° ENE visible
27 Apr 5.8 04:56:55 19° W 05:02:22 52° NNW 05:09:56 10° NE visible
27 Apr 7.0 18:22:13 10° WSW 18:25:46 15° SSW 18:29:21 10° S visible
28 Apr 7.8 02:13:28 12° E 02:13:28 12° E 02:14:00 10° E visible
28 Apr 5.3 03:59:50 64° W 04:01:01 75° NNW 04:08:52 10° NE visible
29 Apr 6.4 03:02:43 41° ENE 03:02:43 41° ENE 03:07:30 10° ENE visible
29 Apr 6.3 04:49:06 19° W 04:53:41 35° NNW 05:00:41 10° NE visible
30 Apr 7.9 02:05:35 11° ENE 02:05:35 11° ENE 02:05:50 10° ENE visible
30 Apr 5.7 03:51:57 50° NW 03:52:16 51° NNW 03:59:48 10° NE visible
01 May 6.7 02:54:45 33° NE 02:54:45 33° NE 02:58:41 10° NE visible
01 May 6.8 04:41:08 16° WNW 04:45:07 24° NNW 04:51:11 10° NNE visible
02 May 6.3 03:43:53 34° NNW 03:43:53 34° NNW 03:50:30 10° NE visible
03 May 7.1 02:46:36 24° NNE 02:46:36 24° NNE 02:49:36 10° NE visible
03 May 7.1 04:32:58 12° NW 04:36:42 17° NNW 04:41:21 10° NNE visible
04 May 6.8 03:35:38 23° NNW 03:35:38 23° NNW 03:40:56 10° NNE visible
